Location: Unspecified
(0.0000°N, 0.0000°E)
Time: 18:28:06
(UTC+00:00)

Vanguard 3 - Pass Details

Date: 14 December 2017
Orbit: 508 x 3264 km, 33.3° (Epoch: 23 June)

Event Time Altitude Azimuth Distance (km) Brightness Sun altitude
Rises 06:42:00 0° 228° (SW) 6,930 11.7 10.9°
Reaches altitude 10° 06:47:19 10° 223° (SW) 5,619 11.3 12.1°
Maximum altitude 07:02:30 54° 150° (SSE) 2,248 10.1 15.5°
Drops below altitude 10° 07:11:10 10° 75° (ENE) 3,342 11.2 17.5°
Sets 07:13:30 0° 70° (ENE) 4,028 11.4 18.1°
